一网星座-0239星 (ONEWEB-0239 )

导读

ONEWEB-0239是英国OneWeb卫星互联网星座的成员,于2021年5月28日成功发射。该卫星运行于1200公里的近地轨道,发射重量约147.5公斤,配备Ku和Ka波段相控阵天线,采用氙等离子体推力器,设计寿命超7年。它属于OneWeb低轨宽带通信星座,旨在为全球提供低时延高速互联网服务,服务覆盖航空海事、偏远地区联网等场景,推动全球网络覆盖均衡化。

基本信息
目录编号:
48802
目录名称:
ONEWEB-0239
国际标识:
2021-045AM
轨道中心:
EARTH
卫星名称:
一网星座-0239星
卫星全名:
一网星座-0239星 (ONEWEB-0239 )
卫星状态:
在轨 (已飞行1932 天)
发射日期:
2021-05-28 UTC
国别 :
英国 (GB)
星等 :
--
该卫星已列入 空间交会检测服务 Space Conjunction Data Service (SCDS) ,当前飞行风险评估等级: 高风险
轨道信息
数据来源 国际轨道数据 AOE轨道数据
星历时间 2026-09-10T20:44:53+0800
1天前
查看轨道信息
2026-09-10T07:00:00+0800
1天前
查看轨道信息
半长轴 7579.912km 7579.905km
偏心率 0.0002128 0.0002547
轨道倾角 87.898° 87.899°
近地点辐角 62.474° 55.143°
升交点赤经 242.186° 242.300°
平近点角 297.660° 113.621°
近地点 1200.161km 1199.837km
远地点 1203.389km 1203.699km
周期 109.460分钟 109.460分钟
每日圈数 13.155477 13.155495
详细信息
平衡模式:
三轴稳定
覆盖范围:
全球
运营商:
一网卫星公司
运营商所在国:
英国
制造商(研发单位):
一网卫星公司
制造商所在国:
英国
使用方式:
暂无
卫星简介
OneWeb卫星网络由648颗重约125公斤的微型卫星组成,运行在1200公里的轨道上。 每颗卫星都能够提供至少每秒8千兆位的吞吐量,以使用其高吞吐量的Ku频段有效载荷为家庭和移动平台提供互联网接入。该卫星仍在工作。
2D轨道图
3D轨道图
轨道高度分析图
轨道倾角分析图
轨道综合分析图
查看轨道综合分析图
交会数据列表
事件ID 空间交会对象 最接近时刻(TCA) 交会距离 交会风险概率(CRP) 交会风险指数(CRI) 操作
CDM_260911-234900-463904-880227
2026-09-11T
23:49:55+0000
0.310 km
远距离
3.907772E-4 高风险 0.87
CDM_260913-043800-518004-880223
2026-09-13T
04:38:59+0000
2.689 km
极远距离
4.99645E-7 极低风险 0.29
与全量物体交会距离演化趋势
与全量物体交会风险概率演化趋势